Terminal Aerodrome Forecast
Issued by NWS

Home | Current Version | Previous Version | Text Only | Print | Product List | Glossary On
Versions: 1 2 3 4 5 6 7 8 9 10 11 12 13 14 15 16 17 18 19 20 21 22 23 24 25 26 27 28 29 30 31 32 33 34 35 36 37 38 39 40 41 42 43 44 45 46 47 48 49 50
248
FTUS46 KEKA 270022 AAA
TAFACV
TAF AMD
KACV 270022Z 2700/2724 32008KT 2SM BR BKN003
     FM270300 VRB04KT 5SM BR OVC003
     FM270600 18003KT 2SM BR OVC002
     FM271800 30006KT P6SM BKN005
     FM272000 31008KT P6SM SCT005=

USA.gov is the U.S. government's official web portal to all federal, state and local government web resources and services.